Meath Environmental Platform

Observations for Trim Patrick St

Time AQI Temp °C Hum % Pres Pa CO μg/m³ H₂S μg/m³ NO μg/m³ NO₂ μg/m³ O₃ μg/m³ SO₂ μg/m³ PM1 μg/m³ PM2.5 μg/m³ PM10 μg/m³
Saturday 1 August 2026
16:11 2 26.9 34 69,033 0 4.3 1.68 11.6 88.5 11.69 7.14 15.37 16.91
16:10 2 26.9 34 69,051 0 4.59 1.98 14.42 84.24 11.53 7.14 16.21 17.83
16:09 2 27 34 69,043 0 0 2 11.89 65.32 10 6.29 13.83 15.21
16:08 2 27.1 34 69,067 0 0 1.92 11.25 72.29 11.18 2 8.23 9.05
16:07 2 27.2 33 69,063 0 0 1.93 13.2 62.2 10.98 2.86 8.26 9.08
16:06 2 27.2 33 69,055 0 0 1.96 11.59 84.86 11.86 2.86 8.28 9.11
16:05 2 27.3 33 69,043 0 0.54 1.94 12.6 67.61 11.58 2 7.5 8.25
16:04 2 27.4 32 69,059 0 0 1.94 12.32 68.59 10.34 3.71 10.72 11.79
16:03 2 27.5 33 69,049 0 0 1.78 12.24 65.11 9.96 2 8.27 9.09
16:02 2 27.6 33 69,035 0 0 1.77 12.21 63.68 11.05 5.43 13.07 14.38
16:01 2 27.6 33 69,045 0 0 1.79 12.68 70.84 10.26 4.57 12.3 13.53
16:00 2 27.6 33 69,055 0 0 1.73 15.08 67.77 10.5 6.29 14.65 16.12
15:59 2 27.6 33 69,041 0 0 1.72 12.91 65.7 10.82 5.43 12.26 13.48
15:58 2 27.5 34 69,055 0 0 1.75 13.05 54.75 9.23 5.43 13.83 15.21
15:57 2 27.4 34 69,069 0 0 1.78 12.13 67.62 10.08 5.43 13.02 14.32
15:56 2 27.2 35 69,059 0 2.47 1.7 14.31 76.36 10.7 4.57 10.52 11.57
15:55 2 27.1 34 69,041 0 0 1.87 17.38 75.33 9.47 2.86 10.59 11.65
15:54 2 27 35 69,051 0 2.05 1.8 14.09 62.61 10.6 3.71 10.52 11.57
15:53 2 26.8 35 69,035 0 4.18 1.97 13.54 79.71 10.23 4.57 10.57 11.62
15:52 2 26.7 35 68,983 0 4.9 1.9 14.78 69.43 10.28 5.43 12.89 14.18